Location: Carrigahorig
(53.0625°N, 8.1439°W)
Time: 00:41:27
(UTC+00:00)

USA 290 - Pass Details

Date: 15 May 2026
Orbit: 396 x 415 km, 73.6° (Epoch: 30 October)

Event Time Altitude Azimuth Distance (km) Brightness Sun altitude
Exits shadow 21:18:07 - 129° (SE) 1,476 4.3 -7.0°
Reaches altitude 10° 21:18:22 10° 125° (SE) 1,429 4.3 -7.0°
Maximum altitude 21:19:39 12° 100° (E) 1,314 4.3 -7.1°
Drops below altitude 10° 21:20:57 10° 76° (ENE) 1,433 4.7 -7.3°
Sets 21:23:56 0° 44° (NE) 2,295 6.0 -7.6°
